Flag for U.S.A. Weather past 2 weeks in Wilmington, Delaware, U.S.A.

Now
75 °F

Broken clouds.


Feels Like: 76 °F
Forecast: 68 / 80 °F
Wind: 8 mph from Northeast

Location: New Castle County Airport

Current Time: Aug 22, 2014 at 10:29:09 AM

Latest Report: Aug 22, 2014 at 10:01 AM


Visibility: 10 mi

Pressure: 30.03 "Hg

Humidity: 76%

Dew point: 67 °F

Location of WilmingtonLocation

Historic Weather in Wilmington — Graph

°F

Wilmington temperature yesterday

Maximum temperature yesterday: 82 °F (at 3:51 PM)
Minimum temperature yesterday: 68 °F (at 5:51 AM)
Average temperature yesterday: 75 °F

Past Weeks' High & Low Weather Summary

 TemperatureHumidityPressure
High85 °F (Aug 10, 1:51 PM)97% (Aug 12, 2:51 PM)30.15 "Hg (Aug 12, 2:51 PM)
Low56 °F (Aug 16, 6:51 AM)31% (Aug 10, 1:51 PM)29.73 "Hg (Aug 13, 3:51 PM)
Average73 °F68%29.98 "Hg
* Reported Aug 7 8:51 AM — Aug 22 8:51 AM, Wilmington, Weather by CustomWeather, © 2014

Note: Actual official high and low records may vary slightly from our data, if they occured in-between our weather recording intervals... More about our weather records

Advertising

Wilmington weather history for previous 24 hours

 ConditionsComfort  
Time TempWeatherWind HumidityBarometerVisibility
8:51 AM
Aug 22
71 °FLow clouds.8 mph84%30.01 "Hg10 mi
7:51 AM70 °FLow clouds.7 mph87%30.01 "Hg10 mi
6:51 AM70 °FMostly cloudy.8 mph90%29.99 "Hg10 mi
5:51 AM69 °FClear.7 mph93%29.97 "Hg10 mi
4:51 AM71 °FMostly cloudy.8 mph90%29.97 "Hg10 mi
3:51 AM72 °FOvercast.18 mph87%29.97 "Hg10 mi
2:51 AM74 °FLow clouds.No wind88%29.96 "Hg10 mi
1:51 AM74 °FLow clouds.3 mph91%29.97 "Hg10 mi
12:51 AM75 °FOvercast.6 mph88%29.98 "Hg10 mi
11:51 PM
Aug 21
75 °FOvercast.7 mph90%29.99 "Hg10 mi
10:51 PM75 °FLight rain. Low clouds.7 mph90%30.00 "Hg10 mi
9:51 PM75 °FPassing clouds.7 mph85%30.01 "Hg10 mi
8:51 PM75 °FPassing clouds.9 mph85%30.01 "Hg10 mi
7:51 PM76 °FPartly sunny.14 mph85%30.00 "Hg10 mi
6:51 PM77 °FSunny.16 mph82%30.00 "Hg10 mi
5:51 PM78 °FSunny.14 mph79%30.00 "Hg10 mi
4:51 PM81 °FSunny.9 mph72%30.01 "Hg10 mi
3:51 PM82 °FPartly sunny.9 mph70%30.00 "Hg10 mi
2:51 PM81 °FOvercast.8 mph72%30.02 "Hg10 mi
1:51 PM79 °FOvercast.7 mph74%30.03 "Hg10 mi
12:51 PM80 °FOvercast.No wind71%30.04 "Hg10 mi
11:51 AM77 °FOvercast.6 mph77%30.05 "Hg10 mi
10:51 AM77 °FMostly cloudy.3 mph77%30.06 "Hg10 mi
Weather by CustomWeather, © 2014

See weather overviewHow to use our weather pages